Location: Peterborough
(44.3091°N, 78.3197°W)
Time: 20:21:26
(UTC-04:00)

A-11 Canister half - Pass Details

Date: 23 March 2023
Orbit: 1526 x 1682 km, 47.3° (Epoch: 06 June)

Event Time Altitude Azimuth Distance (km) Brightness Sun altitude
Rises 21:20:34 0° 279° (W) 4,881 13.1 -20.2°
Reaches altitude 10° 21:23:45 10° 281° (WNW) 3,876 12.2 -20.7°
Maximum altitude 21:33:40 77° 8° (N) 1,633 9.1 -22.3°
Enters shadow 21:38:55 32° 90° (E) 2,467 9.6 -23.1°
